Tillbaka till svenska Fidonet
English   Information   Debug  
FILM   0/18
FNEWS_PUBLISH   5034
FN_SYSOP   42247
FN_SYSOP_OLD1   71952
FTP_FIDO   0/2
FTSC_PUBLIC   0/13979
FUNNY   0/4886
GENEALOGY.EUR   0/71
GET_INFO   105
GOLDED   0/408
HAM   3935/16786
HOLYSMOKE   0/6791
HOT_SITES   0/1
HTMLEDIT   0/71
HUB203   466
HUB_100   264
HUB_400   39
HUMOR   0/29
IC   0/2851
INTERNET   0/424
INTERUSER   0/3
IP_CONNECT   719
JAMNNTPD   0/233
JAMTLAND   0/47
KATTY_KORNER   0/41
LAN   0/16
LINUX-USER   0/19
LINUXHELP   0/1155
LINUX   0/22430
LINUX_BBS   0/957
mail   18.68
mail_fore_ok   249
MENSA   0/341
MODERATOR   0/102
MONTE   0/992
MOSCOW_OKLAHOMA   0/1245
MUFFIN   0/783
MUSIC   0/321
N203_STAT   938
N203_SYSCHAT   313
NET203   321
NET204   69
NET_DEV   0/10
NORD.ADMIN   0/101
NORD.CHAT   0/2572
NORD.FIDONET   189
NORD.HARDWARE   0/28
NORD.KULTUR   0/114
NORD.PROG   0/32
NORD.SOFTWARE   0/88
NORD.TEKNIK   0/58
NORD   0/453
OCCULT_CHAT   0/93
OS2BBS   0/787
OS2DOSBBS   0/580
OS2HW   0/42
OS2INET   0/37
OS2LAN   0/134
OS2PROG   0/36
OS2REXX   0/113
OS2USER-L   207
OS2   0/4835
OSDEBATE   0/18996
PASCAL   0/490
PERL   0/457
PHP   0/45
POINTS   0/405
POLITICS   0/29554
POL_INC   907/14731
PSION   103
R20_ADMIN   1133
R20_AMATORRADIO   0/2
R20_BEST_OF_FIDONET   16
R20_CHAT   0/897
R20_DEPP   0/3
R20_DEV   400
R20_ECHO2   1934
R20_ECHOPRES   0/35
R20_ESTAT   0/719
R20_FIDONETPROG...
...RAM.MYPOINT
  0/2
R20_FIDONETPROGRAM   0/22
R20_FIDONET   0/248
R20_FILEFIND   0/24
R20_FILEFOUND   0/22
R20_HIFI   0/3
R20_INFO2   3828
R20_INTERNET   0/12940
R20_INTRESSE   0/60
R20_INTR_KOM   0/99
R20_KANDIDAT.CHAT   42
R20_KANDIDAT   28
R20_KOM_DEV   112
R20_KONTROLL   0/13360
R20_KORSET   0/18
R20_LOKALTRAFIK   0/24
R20_MODERATOR   0/1852
R20_NC   76
R20_NET200   245
R20_NETWORK.OTH...
...ERNETS
  0/13
R20_OPERATIVSYS...
...TEM.LINUX
  0/44
R20_PROGRAMVAROR   0/1
R20_REC2NEC   534
R20_SFOSM   0/341
R20_SF   0/108
R20_SPRAK.ENGLISH   0/1
R20_SQUISH   107
R20_TEST   2
R20_WORST_OF_FIDONET   20
RAR   0/9
RA_MULTI   106
RA_UTIL   0/162
REGCON.EUR   0/2072
REGCON   0/13
SCIENCE   0/1206
SF   0/239
SHAREWARE_SUPPORT   0/5146
SHAREWRE   0/14
SIMPSONS   0/169
STATS_OLD1   0/2539.065
STATS_OLD2   0/2530
STATS_OLD3   0/2395.095
STATS_OLD4   0/1692.25
SURVIVOR   0/495
SYSOPS_CORNER   0/3
SYSOP   0/84
TAGLINES   0/112
TEAMOS2   0/4530
TECH   0/2617
TEST.444   0/105
TRAPDOOR   0/19
TREK   0/755
TUB   0/290
UFO   0/40
UNIX   0/1316
USA_EURLINK   0/102
USR_MODEMS   0/1
VATICAN   0/2740
VIETNAM_VETS   0/14
VIRUS   0/378
VIRUS_INFO   0/201
VISUAL_BASIC   0/473
WHITEHOUSE   0/5187
WIN2000   0/101
WIN32   0/30
WIN95   0/4291
WIN95_OLD1   0/70272
WINDOWS   0/1517
WWB_SYSOP   0/419
WWB_TECH   0/810
ZCC-PUBLIC   0/1
ZEC   4

 
4DOS   0/134
ABORTION   0/7
ALASKA_CHAT   0/506
ALLFIX_FILE   0/1313
ALLFIX_FILE_OLD1   0/7997
ALT_DOS   0/152
AMATEUR_RADIO   0/1039
AMIGASALE   0/14
AMIGA   0/331
AMIGA_INT   0/1
AMIGA_PROG   0/20
AMIGA_SYSOP   0/26
ANIME   0/15
ARGUS   0/924
ASCII_ART   0/340
ASIAN_LINK   0/651
ASTRONOMY   0/417
AUDIO   0/92
AUTOMOBILE_RACING   0/105
BABYLON5   0/17862
BAG   135
BATPOWER   0/361
BBBS.ENGLISH   0/382
BBSLAW   0/109
BBS_ADS   0/5290
BBS_INTERNET   0/507
BIBLE   0/3563
BINKD   0/1119
BINKLEY   0/215
BLUEWAVE   0/2173
CABLE_MODEMS   0/25
CBM   0/46
CDRECORD   0/66
CDROM   0/20
CLASSIC_COMPUTER   0/378
COMICS   0/15
CONSPRCY   0/899
COOKING   42383
COOKING_OLD1   0/24719
COOKING_OLD2   0/40862
COOKING_OLD3   0/37489
COOKING_OLD4   12916/35496
COOKING_OLD5   9370
C_ECHO   0/189
C_PLUSPLUS   0/31
DIRTY_DOZEN   0/201
DOORGAMES   1991/2388
DOS_INTERNET   0/196
duplikat   6103
ECHOLIST   17140/18295
EC_SUPPORT   0/318
ELECTRONICS   0/359
ELEKTRONIK.GER   1534
ENET.LINGUISTIC   0/13
ENET.POLITICS   0/4
ENET.SOFT   0/11701
ENET.SYSOP   34431
ENET.TALKS   0/32
ENGLISH_TUTOR   0/2000
EVOLUTION   0/1335
FDECHO   0/217
FDN_ANNOUNCE   2168/7068
FIDONEWS   25233
FIDONEWS_OLD1   0/49742
FIDONEWS_OLD2   0/35949
FIDONEWS_OLD3   0/30874
FIDONEWS_OLD4   0/37224
FIDO_SYSOP   12977
FIDO_UTIL   0/180
FILEFIND   0/209
FILEGATE   0/212
Möte HAM, 16786 texter
 lista första sista föregående nästa
Text 3111, 787 rader
Skriven 2009-07-31 00:00:24 av Amsat List (1:323/120.0)
Ärende: [keps]  orb09211.amsa
=============================
[keps]  orb09211.amsa

Return-Path: <keps-bounces@amsat.org>
X-Rcpt: craig.healy@chowda.com
X-UIDL: 1249012953.25184

SB KEPS @ AMSAT  $ORB09211.O
Orbital Elements  09211.OSCAR

HR AMSAT ORBITAL ELEMENTS FOR OSCAR SATELLITES
FROM WA5QGD FORT WORTH,TX July 30, 2009
Send Subscribe/unsubscribe to KEPS at 
http://www.amsat.org/mailman/listinfo/keps
BID: ORB09211.O
TO ALL RADIO AMATEURS BT

Satellite: AO-07
Catalog number: 07530
Epoch time:      09211.58324359
Element set:     542
Inclination:      101.4245 deg
RA of node:       234.6643 deg
Eccentricity:    0.0011693
Arg of perigee:   182.8638 deg
Mean anomaly:     177.2370 deg
Mean motion:   12.53576150 rev/day
Decay rate:       -2.7e-07 rev/day^2
Epoch rev:           58815
Checksum:              296

Satellite: FO-29
Catalog number: 24278
Epoch time:      09211.70794076
Element set:      98
Inclination:      098.5473 deg
RA of node:       079.8837 deg
Eccentricity:    0.0350049
Arg of perigee:   237.5178 deg
Mean anomaly:     119.1676 deg
Mean motion:   13.52943750 rev/day
Decay rate:       -8.7e-07 rev/day^2
Epoch rev:           63963
Checksum:              360

Satellite: SO-33
Catalog number: 25509
Epoch time:      09210.27301247
Element set:    0509
Inclination:      031.4327 deg
RA of node:       174.5116 deg
Eccentricity:    0.0354230
Arg of perigee:   346.3839 deg
Mean anomaly:     012.7441 deg
Mean motion:   14.28258201 rev/day
Decay rate:       1.14e-06 rev/day^2
Epoch rev:           56185
Checksum:              270

Satellite: RS-22
Catalog number: 27939
Epoch time:      09211.20854144
Element set:     852
Inclination:      097.9375 deg
RA of node:       084.4988 deg
Eccentricity:    0.0013703
Arg of perigee:   001.7386 deg
Mean anomaly:     358.3869 deg
Mean motion:   14.63331467 rev/day
Decay rate:       -3.4e-07 rev/day^2
Epoch rev:           31186
Checksum:              328

Satellite: VO-52
Catalog number: 28650
Epoch time:      09211.33992324
Element set:     284
Inclination:      097.7393 deg
RA of node:       271.4899 deg
Eccentricity:    0.0025997
Arg of perigee:   247.5699 deg
Mean anomaly:     112.2812 deg
Mean motion:   14.81607170 rev/day
Decay rate:       3.91e-06 rev/day^2
Epoch rev:           22903
Checksum:              333

/EX
SB KEPS @ AMSAT  $ORB09211.D
Orbital Elements  09211.MICROS

HR AMSAT ORBITAL ELEMENTS FOR THE MICROSATS
FROM WA5QGD FORT WORTH,TX July 30, 2009
Send Subscribe/unsubscribe to KEPS at 
http://www.amsat.org/mailman/listinfo/keps
BID: ORB09211.D
TO ALL RADIO AMATEURS BT

Satellite: AO-16
Catalog number: 20439
Epoch time:      09210.90140021
Element set:    0665
Inclination:      098.2820 deg
RA of node:       177.3665 deg
Eccentricity:    0.0011784
Arg of perigee:   047.3222 deg
Mean anomaly:     312.8962 deg
Mean motion:   14.31829342 rev/day
Decay rate:       -5.0e-08 rev/day^2
Epoch rev:           01926
Checksum:              280

Satellite: LO-19
Catalog number: 20442
Epoch time:      09211.65008089
Element set:     579
Inclination:      098.2457 deg
RA of node:       185.1758 deg
Eccentricity:    0.0012572
Arg of perigee:   042.1439 deg
Mean anomaly:     318.0714 deg
Mean motion:   14.32064964 rev/day
Decay rate:        8.9e-07 rev/day^2
Epoch rev:            1953
Checksum:              311

Satellite: AO-27
Catalog number: 22825
Epoch time:      09211.40932022
Element set:     302
Inclination:      098.4381 deg
RA of node:       163.4772 deg
Eccentricity:    0.0009051
Arg of perigee:   132.6184 deg
Mean anomaly:     227.5758 deg
Mean motion:   14.29269788 rev/day
Decay rate:       -2.0e-07 rev/day^2
Epoch rev:           82608
Checksum:              301

Satellite: IO-26
Catalog number: 22826
Epoch time:      09211.67188635
Element set:      31
Inclination:      098.4325 deg
RA of node:       164.4613 deg
Eccentricity:    0.0009688
Arg of perigee:   128.1299 deg
Mean anomaly:     232.0759 deg
Mean motion:   14.29522342 rev/day
Decay rate:        2.0e-08 rev/day^2
Epoch rev:           82622
Checksum:              304

Satellite: GO-32
Catalog number: 25397
Epoch time:      09211.17037394
Element set:     953
Inclination:      098.3265 deg
RA of node:       231.2076 deg
Eccentricity:    0.0002255
Arg of perigee:   115.8723 deg
Mean anomaly:     244.2693 deg
Mean motion:   14.23161622 rev/day
Decay rate:        2.5e-07 rev/day^2
Epoch rev:           57424
Checksum:              288

Satellite: NO-44
Catalog number: 26931
Epoch time:      09211.66109587
Element set:     228
Inclination:      067.0536 deg
RA of node:       312.3429 deg
Eccentricity:    0.0006192
Arg of perigee:   277.5999 deg
Mean anomaly:     082.4408 deg
Mean motion:   14.29561377 rev/day
Decay rate:      -1.62e-06 rev/day^2
Epoch rev:           40879
Checksum:              332

Satellite: SO-50
Catalog number: 27607
Epoch time:      09211.34510878
Element set:     946
Inclination:      064.5581 deg
RA of node:       254.0130 deg
Eccentricity:    0.0062778
Arg of perigee:   195.2647 deg
Mean anomaly:     164.6541 deg
Mean motion:   14.71449468 rev/day
Decay rate:      -1.47e-06 rev/day^2
Epoch rev:           35502
Checksum:              316

Satellite: CO-55
Catalog number: 27844
Epoch time:      09211.02504854
Element set:     632
Inclination:      098.7125 deg
RA of node:       219.5843 deg
Eccentricity:    0.0010705
Arg of perigee:   024.2201 deg
Mean anomaly:     335.9470 deg
Mean motion:   14.20648648 rev/day
Decay rate:        3.1e-07 rev/day^2
Epoch rev:           31534
Checksum:              280

